• In Russia
  • List of Countries
  • For 7 days
  • Water Temperature
  • Satellite Maps
  • Weather Map
  • Weather Widgets
  • user-avatar
    Login

    Hourly Weather Salzburg

    Today, 29 April, Saturday

    Time Temperature Precipitation Wind Pressure Humidity
    00:00 -7°C° 0.3 mm 2 mps 622 mmHg 97%
    01:00 -7°C° 0.3 mm 2 mps 622 mmHg 97%
    02:00 -8°C° 0.1 mm 2 mps 622 mmHg 97%
    03:00 -8°C° 0.1 mm 2 mps 622 mmHg 96%
    04:00 -9°C° 0.1 mm 2 mps 622 mmHg 96%
    05:00 -7°C° 0.1 mm 1 mps 623 mmHg 96%
    06:00 -6°C° 0.1 mm 1 mps 623 mmHg 96%
    07:00 -3°C° 0.1 mm 1 mps 624 mmHg 95%
    08:00 -2°C° 0 mm 1 mps 624 mmHg 95%
    09:00 -1°C° 0 mm 1 mps 624 mmHg 95%
    10:00 0°C° 0 mm 1 mps 624 mmHg 95%
    11:00 0°C° 0 mm 1 mps 624 mmHg 95%
    12:00 +1°C° 0 mm 1 mps 624 mmHg 94%
    13:00 +1°C° 0 mm 1 mps 624 mmHg 93%
    14:00 0°C° 0 mm 0 mps 624 mmHg 93%
    15:00 +1°C° 0 mm 0 mps 624 mmHg 92%
    16:00 +1°C° 0 mm 0 mps 624 mmHg 91%
    17:00 +1°C° 0 mm 1 mps 624 mmHg 93%
    18:00 -1°C° 0 mm 1 mps 623 mmHg 95%
    19:00 -2°C° 0 mm 1 mps 623 mmHg 97%
    20:00 -3°C° 0 mm 1 mps 622 mmHg 97%
    21:00 -4°C° 0 mm 1 mps 622 mmHg 97%
    22:00 -7°C° 0 mm 1 mps 622 mmHg 97%
    23:00 -7°C° 0 mm 1 mps 622 mmHg 96%

    Tomorrow, 30 April, Sunday

    Time Temperature Precipitation Wind Pressure Humidity
    00:00 -7°C° 0 mm 1 mps 622 mmHg 95%
    01:00 -8°C° 0 mm 2 mps 622 mmHg 94%
    02:00 -8°C° 0 mm 2 mps 622 mmHg 94%
    03:00 -8°C° 0 mm 2 mps 621 mmHg 94%
    04:00 -9°C° 0 mm 2 mps 621 mmHg 94%
    05:00 -7°C° 0 mm 2 mps 622 mmHg 93%
    06:00 -5°C° 0 mm 2 mps 623 mmHg 92%
    07:00 -3°C° 0 mm 2 mps 623 mmHg 90%
    08:00 -2°C° 0 mm 2 mps 623 mmHg 90%
    09:00 +1°C° 0 mm 2 mps 624 mmHg 89%
    10:00 +2°C° 0 mm 2 mps 624 mmHg 89%
    11:00 +3°C° 0 mm 2 mps 624 mmHg 88%
    12:00 +3°C° 0 mm 2 mps 623 mmHg 87%
    13:00 +4°C° 0 mm 2 mps 623 mmHg 86%
    14:00 +4°C° 0 mm 2 mps 623 mmHg 86%
    15:00 +5°C° 0 mm 2 mps 623 mmHg 86%
    16:00 +5°C° 0 mm 2 mps 622 mmHg 86%
    17:00 +3°C° 0 mm 2 mps 622 mmHg 89%
    18:00 +2°C° 0 mm 2 mps 621 mmHg 92%
    19:00 +1°C° 0 mm 2 mps 621 mmHg 95%
    20:00 -1°C° 0 mm 2 mps 621 mmHg 95%
    21:00 -2°C° 0 mm 2 mps 621 mmHg 95%
    22:00 -2°C° 0 mm 3 mps 621 mmHg 95%
    23:00 -4°C° 0 mm 3 mps 620 mmHg 95%

    Day after tomorrow, 1 May, Monday

    Time Temperature Precipitation Wind Pressure Humidity
    00:00 -4°C° 0 mm 3 mps 620 mmHg 94%
    01:00 -3°C° 0 mm 2 mps 620 mmHg 94%
    02:00 -4°C° 0 mm 2 mps 619 mmHg 94%
    03:00 -4°C° 0 mm 2 mps 619 mmHg 94%
    04:00 -4°C° 0 mm 2 mps 619 mmHg 94%
    05:00 -3°C° 0 mm 2 mps 619 mmHg 92%
    06:00 -2°C° 0 mm 2 mps 619 mmHg 90%
    07:00 -1°C° 0 mm 2 mps 620 mmHg 88%
    08:00 +1°C° 0 mm 2 mps 620 mmHg 86%
    09:00 +3°C° 0 mm 2 mps 621 mmHg 83%
    10:00 +4°C° 0 mm 2 mps 621 mmHg 80%
    11:00 +5°C° 0 mm 2 mps 621 mmHg 81%
    12:00 +5°C° 0 mm 2 mps 621 mmHg 81%
    13:00 +6°C° 0 mm 2 mps 622 mmHg 81%
    14:00 +3°C° 1.1 mm 3 mps 621 mmHg 85%
    15:00 +2°C° 1.1 mm 3 mps 621 mmHg 89%
    16:00 +1°C° 1.1 mm 3 mps 621 mmHg 93%
    17:00 0°C° 2.2 mm 3 mps 621 mmHg 95%
    18:00 -1°C° 2.2 mm 2 mps 621 mmHg 96%
    19:00 -2°C° 2.2 mm 2 mps 621 mmHg 98%
    20:00 -3°C° 2 mm 2 mps 621 mmHg 98%
    21:00 -3°C° 2 mm 2 mps 622 mmHg 97%
    22:00 -4°C° 2 mm 2 mps 622 mmHg 97%
    23:00 -4°C° 1.3 mm 2 mps 622 mmHg 97%

    2 May, Tuesday

    Time Temperature Precipitation Wind Pressure Humidity
    00:00 -4°C° 1.3 mm 2 mps 622 mmHg 97%
    01:00 -2°C° 1.3 mm 1 mps 622 mmHg 97%
    02:00 -2°C° 0.7 mm 1 mps 622 mmHg 97%
    03:00 -2°C° 0.7 mm 1 mps 622 mmHg 97%
    04:00 -2°C° 0.7 mm 1 mps 622 mmHg 97%
    05:00 -2°C° 0.6 mm 1 mps 622 mmHg 97%
    06:00 -1°C° 0.6 mm 1 mps 623 mmHg 97%
    07:00 -1°C° 0.6 mm 1 mps 623 mmHg 97%
    08:00 0°C° 0.7 mm 1 mps 623 mmHg 97%
    09:00 0°C° 0.7 mm 1 mps 624 mmHg 96%
    10:00 0°C° 0.7 mm 1 mps 624 mmHg 96%
    11:00 +1°C° 0.4 mm 1 mps 624 mmHg 95%
    12:00 +1°C° 0.4 mm 1 mps 624 mmHg 94%
    13:00 +2°C° 0.4 mm 1 mps 624 mmHg 93%
    14:00 +2°C° 0.1 mm 1 mps 624 mmHg 92%
    15:00 +2°C° 0.1 mm 1 mps 624 mmHg 91%
    16:00 +3°C° 0.1 mm 1 mps 624 mmHg 89%
    17:00 0°C° 0 mm 0 mps 623 mmHg 92%
    18:00 -1°C° 0 mm 0 mps 623 mmHg 94%
    19:00 -3°C° 0 mm 0 mps 623 mmHg 96%
    20:00 -4°C° 0 mm 0 mps 622 mmHg 96%
    21:00 -4°C° 0 mm 1 mps 622 mmHg 96%
    22:00 -6°C° 0 mm 1 mps 622 mmHg 96%
    23:00 -4°C° 0 mm 1 mps 622 mmHg 95%

    3 May, Wednesday

    Time Temperature Precipitation Wind Pressure Humidity
    00:00 -4°C° 0 mm 1 mps 622 mmHg 95%
    01:00 -3°C° 0 mm 1 mps 623 mmHg 94%
    02:00 -4°C° 0 mm 1 mps 622 mmHg 94%
    03:00 -4°C° 0 mm 1 mps 622 mmHg 94%
    04:00 -4°C° 0 mm 1 mps 622 mmHg 94%
    05:00 -2°C° 0 mm 1 mps 623 mmHg 93%
    06:00 -1°C° 0 mm 1 mps 623 mmHg 92%
    07:00 +1°C° 0 mm 1 mps 624 mmHg 91%
    08:00 +2°C° 0 mm 1 mps 624 mmHg 89%
    09:00 +3°C° 0 mm 1 mps 624 mmHg 87%
    10:00 +4°C° 0 mm 1 mps 624 mmHg 85%
    11:00 +5°C° 0 mm 1 mps 624 mmHg 84%
    12:00 +6°C° 0 mm 1 mps 624 mmHg 82%
    13:00 +6°C° 0 mm 1 mps 624 mmHg 81%
    14:00 +6°C° 0.3 mm 1 mps 624 mmHg 82%
    15:00 +6°C° 0.3 mm 1 mps 624 mmHg 82%
    16:00 +6°C° 0.3 mm 1 mps 624 mmHg 83%
    17:00 +5°C° 0.3 mm 1 mps 623 mmHg 87%
    18:00 +3°C° 0.3 mm 1 mps 622 mmHg 91%
    19:00 +1°C° 0.3 mm 1 mps 622 mmHg 95%
    20:00 +1°C° 0.2 mm 1 mps 622 mmHg 95%
    21:00 0°C° 0.2 mm 1 mps 622 mmHg 95%
    22:00 -1°C° 0.2 mm 1 mps 622 mmHg 96%
    23:00 -1°C° 0 mm 1 mps 621 mmHg 95%

    4 May, Thursday

    Time Temperature Precipitation Wind Pressure Humidity
    00:00 -1°C° 0 mm 1 mps 621 mmHg 95%
    01:00 -2°C° 0 mm 1 mps 621 mmHg 95%
    02:00 -2°C° 0 mm 1 mps 621 mmHg 95%
    03:00 -2°C° 0 mm 1 mps 621 mmHg 94%
    04:00 -3°C° 0 mm 1 mps 620 mmHg 94%
    05:00 -1°C° 0 mm 1 mps 621 mmHg 91%
    06:00 +1°C° 0 mm 1 mps 622 mmHg 89%
    07:00 +2°C° 0 mm 1 mps 622 mmHg 87%
    08:00 +4°C° 0 mm 1 mps 622 mmHg 84%
    09:00 +5°C° 0 mm 1 mps 623 mmHg 81%
    10:00 +6°C° 0 mm 1 mps 623 mmHg 78%
    11:00 +6°C° 0.5 mm 1 mps 623 mmHg 80%
    12:00 +7°C° 0.5 mm 1 mps 623 mmHg 82%
    13:00 +6°C° 0.5 mm 2 mps 623 mmHg 83%
    14:00 +5°C° 1.4 mm 2 mps 623 mmHg 86%
    15:00 +5°C° 1.4 mm 2 mps 622 mmHg 89%
    16:00 +4°C° 1.4 mm 2 mps 622 mmHg 92%
    17:00 +4°C° 2.7 mm 2 mps 622 mmHg 94%
    18:00 +3°C° 2.7 mm 2 mps 622 mmHg 96%
    19:00 +2°C° 2.7 mm 2 mps 622 mmHg 98%
    20:00 +1°C° 2.4 mm 2 mps 622 mmHg 98%
    21:00 +1°C° 2.4 mm 2 mps 623 mmHg 97%
    22:00 +1°C° 2.4 mm 2 mps 623 mmHg 97%
    23:00 -1°C° 1.1 mm 2 mps 623 mmHg 97%
    Show more